Location: Caltech
(34.1382°N, 118.1253°W)
Time: 00:18:36
(UTC-07:00)

Iridium 68 - Visible Passes

Search period start: 30 May 2017 00:00
Search period end: 09 June 2017 00:00
Orbit: 776 x 779 km, 86.4° (Epoch: 29 May)

Date Brightness Start Highest point End Pass type
(mag) Time Alt. Az. Time Alt. Az. Time Alt. Az.
30 May 8.0 00:53:47 21° WNW 00:53:47 21° WNW 00:56:33 10° NNW visible
30 May 8.1 22:39:44 15° ENE 22:39:44 15° ENE 22:41:33 10° NE visible
31 May 7.3 00:20:11 36° NW 00:20:11 36° NW 00:23:41 10° NNW visible
31 May 6.8 23:46:35 49° N 23:46:35 49° N 23:50:22 10° N visible
01 Jun 7.0 23:12:59 38° NE 23:12:59 38° NE 23:16:38 10° NNE visible
02 Jun 8.3 00:53:26 16° WNW 00:53:26 16° WNW 00:55:47 10° NW visible
02 Jun 7.6 22:39:22 22° ENE 22:39:22 22° ENE 22:42:27 10° NNE visible
03 Jun 7.6 00:19:49 29° WNW 00:19:49 29° WNW 00:23:26 10° NNW visible
03 Jun 8.1 22:05:45 12° ENE 22:05:45 12° ENE 22:07:07 10° NE visible
03 Jun 6.7 23:46:12 50° NW 23:46:12 50° NW 23:50:22 10° N visible
04 Jun 6.4 23:12:34 58° NE 23:12:34 58° NE 23:16:53 10° N visible
05 Jun 8.6 00:53:01 10° WNW 00:53:01 10° WNW 00:53:48 10° WNW visible
05 Jun 6.9 22:38:55 34° ENE 22:38:55 34° ENE 22:43:00 10° NNE visible
06 Jun 7.9 00:19:22 21° WNW 00:19:22 21° WNW 00:22:56 10° NNW visible
06 Jun 7.7 22:05:16 18° ENE 22:05:16 18° ENE 22:08:31 10° NE visible
06 Jun 7.0 23:45:43 39° WNW 23:45:43 39° WNW 23:50:14 10° NNW visible
07 Jun 6.1 23:12:03 75° NW 23:12:03 75° NW 23:16:58 10° N visible
08 Jun 6.2 22:38:22 53° E 22:38:22 53° E 22:43:20 10° NNE visible
